Weather in Omutinskiy

Russia / Tyumen Oblast     56°26′15″N   67°36′46″E
В апреле 2022 года жителям России запретили посещать сайт meteo.paraplan.net по решению Генеральной прокуратуры. Аудитория сайта уменьшилась в 10 раз. Владельцы сайта не видят смысла в поддержке погодного сервера в таких условиях. Сайт будет закрыт в октябре.
temp.,
°C
wind,
m/s
gust,
m/s
humid.,
%
clouds,
%
prec.,
mm/h
press.,
hPa
HPBL,
m
4 october, tue
tue423:00+6ssw61452100 0.0 1030305
02:00+5ssw6145163 0.0 1030294
05:00+6sw61349100 0.0 1030328
08:00+6wsw61375100 0.8 1030336
11:00+8sw51270100 1.8 1031354
14:00+13wsw695598 0.0 1030537
17:00+13wsw4106243 0.0 1031241
20:00+9wsw4127749 0.0 1032208
5 october, wed
wed523:00+8w41180100 0.0 1033182
02:00+8wsw4882100 0.0 1033125
05:00+7wsw410745 0.0 1034155
08:00+7wsw5125795 0.0 1034235
11:00+12wsw593525 0.0 1033437
14:00+14wsw683050 0.0 1032666
17:00+11sw5942100 0.0 1032314
20:00+8sw41051100 0.0 1032246
6 october, thu
thu623:00+7sw3751100 0.0 1031154
02:00+7sw3751100 0.0 1030142
05:00+6sw3552100 0.0 103083
08:00+6sw3649100 0.0 1029133
11:00+11sw473699 0.0 1028363
14:00+13ssw4632100 0.0 1027531
17:00+11s3745100 0.0 1025161
20:00+9s4942100 0.0 1025191
7 october, fri
fri723:00+9s41141100 0.0 1022223
02:00+8s4941100 0.0 1021164
05:00+8ssw3841100 0.0 1020158
08:00+8ssw3844100 0.0 1018167
11:00+11ssw5939100 0.0 1018417
14:00+12ssw51255100 0.0 10161090
17:00+10sw51166100 0.1 1015722
20:00+9sw51183100 0.4 1014701
8 october, sat
sat823:00+8sw4891100 1.6 1012427
02:00+8sw3794100 0.4 1011325
05:00+8sw3693100 0.4 1009305
08:00+7w4796100 2.0 1008499
11:00+9w6862100 2.7 10091134
14:00+9w677197 0.2 10081141
17:00+7w4788100 0.4 1008944
20:00+7wnw5990100 0.5 10091187